Time,TemperatureF,DewpointF,PressureIn,WindDirection,WindDirectionDegrees,WindSpeedMPH,WindSpeedGustMPH,Humidity,HourlyPrecipIn,Conditions,Clouds,dailyrainin,SoftwareType,DateUTC
2013-05-06 00:00:00,54.0,54.0,29.82,WNW,290,9.0,-999.0,99,-99.99,,,-99.99,,2013-05-06 07:00:00,
2013-05-06 00:22:00,54.0,54.0,29.82,WNW,290,9.0,-999.0,99,-99.99,,,-99.99,,2013-05-06 07:22:00,
2013-05-06 00:31:00,54.0,54.0,29.82,WNW,290,9.0,-999.0,99,-99.99,,,-99.99,,2013-05-06 07:31:00,
2013-05-06 00:41:00,54.0,54.0,29.82,WNW,290,9.0,-999.0,99,-99.99,,,-99.99,,2013-05-06 07:41:00,
2013-05-06 00:51:00,54.0,54.0,29.82,WNW,290,9.0,-999.0,99,-99.99,,,-99.99,,2013-05-06 07:51:00,
2013-05-06 01:00:00,53.0,53.0,29.83,WNW,300,7.0,-999.0,99,-99.99,,,-99.99,,2013-05-06 08:00:00,
2013-05-06 01:21:00,53.0,53.0,29.83,WNW,300,7.0,-999.0,99,-99.99,,,-99.99,,2013-05-06 08:21:00,
2013-05-06 01:31:00,53.0,53.0,29.83,WNW,300,7.0,-999.0,99,-99.99,,,-99.99,,2013-05-06 08:31:00,
2013-05-06 01:41:00,53.0,53.0,29.83,WNW,300,7.0,-999.0,99,-99.99,,,-99.99,,2013-05-06 08:41:00,
2013-05-06 01:52:00,53.0,53.0,29.83,WNW,300,7.0,-999.0,99,-99.99,,,-99.99,,2013-05-06 08:52:00,
2013-05-06 02:00:00,53.0,53.0,29.84,NW,320,6.0,-999.0,100,-99.99,,,-99.99,,2013-05-06 09:00:00,
2013-05-06 02:22:00,53.0,53.0,29.84,NW,320,6.0,-999.0,100,-99.99,,,-99.99,,2013-05-06 09:22:00,
2013-05-06 02:32:00,53.0,53.0,29.84,NW,320,6.0,-999.0,100,-99.99,,,-99.99,,2013-05-06 09:32:00,
2013-05-06 02:42:00,53.0,53.0,29.84,NW,320,6.0,-999.0,100,-99.99,,,-99.99,,2013-05-06 09:42:00,
2013-05-06 02:53:00,53.0,53.0,29.84,NW,320,6.0,-999.0,100,-99.99,,,-99.99,,2013-05-06 09:53:00,
2013-05-06 03:00:00,53.0,53.0,29.83,NW,320,6.0,-999.0,99,-99.99,,,-99.99,,2013-05-06 10:00:00,
2013-05-06 03:22:00,53.0,53.0,29.83,NW,320,6.0,-999.0,99,-99.99,,,-99.99,,2013-05-06 10:22:00,
2013-05-06 03:32:00,53.0,53.0,29.83,NW,320,6.0,-999.0,99,-99.99,,,-99.99,,2013-05-06 10:32:00,
2013-05-06 03:41:00,53.0,53.0,29.83,NW,320,6.0,-999.0,99,-99.99,,,-99.99,,2013-05-06 10:41:00,
2013-05-06 03:52:00,53.0,53.0,29.83,NW,320,6.0,-999.0,99,-99.99,,,-99.99,,2013-05-06 10:52:00,
2013-05-06 04:00:00,54.0,54.0,29.84,North,350,5.0,-999.0,99,-99.99,,,-99.99,,2013-05-06 11:00:00,
2013-05-06 04:21:00,54.0,54.0,29.84,North,350,5.0,-999.0,99,-99.99,,,-99.99,,2013-05-06 11:21:00,
2013-05-06 04:31:00,54.0,54.0,29.84,North,350,5.0,-999.0,99,-99.99,,,-99.99,,2013-05-06 11:31:00,
2013-05-06 04:41:00,54.0,54.0,29.84,North,350,5.0,-999.0,99,-99.99,,,-99.99,,2013-05-06 11:41:00,
2013-05-06 04:52:00,54.0,54.0,29.84,North,350,5.0,-999.0,99,-99.99,,,-99.99,,2013-05-06 11:52:00,
2013-05-06 05:00:00,54.0,53.0,29.84,NNW,340,5.0,-999.0,99,-99.99,,,-99.99,,2013-05-06 12:00:00,
2013-05-06 05:21:00,54.0,53.0,29.84,NNW,340,5.0,-999.0,99,-99.99,,,-99.99,,2013-05-06 12:21:00,
2013-05-06 05:31:00,54.0,53.0,29.84,NNW,340,5.0,-999.0,99,-99.99,,,-99.99,,2013-05-06 12:31:00,
2013-05-06 05:41:00,54.0,53.0,29.84,NNW,340,5.0,-999.0,99,-99.99,,,-99.99,,2013-05-06 12:41:00,
2013-05-06 05:51:00,54.0,53.0,29.84,NNW,340,5.0,-999.0,99,-99.99,,,-99.99,,2013-05-06 12:51:00,
2013-05-06 06:00:00,54.0,54.0,29.84,North,10,1.0,-999.0,98,-99.99,,,-99.99,,2013-05-06 13:00:00,
2013-05-06 06:21:00,54.0,54.0,29.84,North,10,1.0,-999.0,98,-99.99,,,-99.99,,2013-05-06 13:21:00,
2013-05-06 06:31:00,54.0,54.0,29.84,North,10,1.0,-999.0,98,-99.99,,,-99.99,,2013-05-06 13:31:00,
2013-05-06 06:42:00,54.0,54.0,29.84,North,10,1.0,-999.0,98,-99.99,,,-99.99,,2013-05-06 13:42:00,
2013-05-06 06:51:00,54.0,54.0,29.84,North,10,1.0,-999.0,98,-99.99,,,-99.99,,2013-05-06 13:51:00,
2013-05-06 07:00:00,56.0,55.0,29.84,NE,50,1.0,-999.0,97,-99.99,,,-99.99,,2013-05-06 14:00:00,
2013-05-06 07:21:00,56.0,55.0,29.84,NE,50,1.0,-999.0,97,-99.99,,,-99.99,,2013-05-06 14:21:00,
2013-05-06 07:32:00,56.0,55.0,29.84,NE,50,1.0,-999.0,97,-99.99,,,-99.99,,2013-05-06 14:32:00,
2013-05-06 07:41:00,56.0,55.0,29.84,NE,50,1.0,-999.0,97,-99.99,,,-99.99,,2013-05-06 14:41:00,
2013-05-06 07:51:00,56.0,55.0,29.84,NE,50,1.0,-999.0,97,-99.99,,,-99.99,,2013-05-06 14:51:00,
2013-05-06 08:00:00,55.0,55.0,29.85,NNE,20,3.0,-999.0,98,-99.99,,,-99.99,,2013-05-06 15:00:00,
2013-05-06 08:21:00,55.0,55.0,29.85,NNE,20,3.0,-999.0,98,-99.99,,,-99.99,,2013-05-06 15:21:00,
2013-05-06 08:32:00,55.0,55.0,29.85,NNE,20,3.0,-999.0,98,-99.99,,,-99.99,,2013-05-06 15:32:00,
2013-05-06 08:42:00,55.0,55.0,29.85,NNE,20,3.0,-999.0,98,-99.99,,,-99.99,,2013-05-06 15:42:00,
2013-05-06 08:53:00,55.0,55.0,29.85,NNE,20,3.0,-999.0,98,-99.99,,,-99.99,,2013-05-06 15:53:00,
2013-05-06 09:00:00,56.0,55.0,29.85,NE,50,5.0,-999.0,94,-99.99,,,-99.99,,2013-05-06 16:00:00,
2013-05-06 09:22:00,56.0,55.0,29.85,NE,50,5.0,-999.0,94,-99.99,,,-99.99,,2013-05-06 16:22:00,
2013-05-06 09:32:00,56.0,55.0,29.85,NE,50,5.0,-999.0,94,-99.99,,,-99.99,,2013-05-06 16:32:00,
2013-05-06 09:41:00,56.0,55.0,29.85,NE,50,5.0,-999.0,94,-99.99,,,-99.99,,2013-05-06 16:41:00,
2013-05-06 09:52:00,56.0,55.0,29.85,NE,50,5.0,-999.0,94,-99.99,,,-99.99,,2013-05-06 16:52:00,
2013-05-06 10:00:00,56.0,55.0,29.87,NNE,20,3.0,-999.0,94,-99.99,,,-99.99,,2013-05-06 17:00:00,
2013-05-06 10:22:00,56.0,55.0,29.87,NNE,20,3.0,-999.0,94,-99.99,,,-99.99,,2013-05-06 17:22:00,
2013-05-06 10:31:00,56.0,55.0,29.87,NNE,20,3.0,-999.0,94,-99.99,,,-99.99,,2013-05-06 17:31:00,
2013-05-06 10:42:00,56.0,55.0,29.87,NNE,20,3.0,-999.0,94,-99.99,,,-99.99,,2013-05-06 17:42:00,
2013-05-06 10:52:00,56.0,55.0,29.87,NNE,20,3.0,-999.0,94,-99.99,,,-99.99,,2013-05-06 17:52:00,
2013-05-06 11:00:00,57.0,55.0,29.88,East,80,5.0,-999.0,94,-99.99,,,-99.99,,2013-05-06 18:00:00,
2013-05-06 11:21:00,57.0,55.0,29.88,East,80,5.0,-999.0,94,-99.99,,,-99.99,,2013-05-06 18:21:00,
2013-05-06 11:31:00,57.0,55.0,29.88,East,80,5.0,-999.0,94,-99.99,,,-99.99,,2013-05-06 18:31:00,
2013-05-06 11:42:00,57.0,55.0,29.88,East,80,5.0,-999.0,94,-99.99,,,-99.99,,2013-05-06 18:42:00,
2013-05-06 11:52:00,57.0,55.0,29.88,East,80,5.0,-999.0,94,-99.99,,,-99.99,,2013-05-06 18:52:00,
2013-05-06 12:00:00,57.0,56.0,29.88,SE,130,7.0,-999.0,96,-99.99,,,-99.99,,2013-05-06 19:00:00,
2013-05-06 12:21:00,57.0,56.0,29.88,SE,130,7.0,-999.0,96,-99.99,,,-99.99,,2013-05-06 19:21:00,
2013-05-06 12:32:00,57.0,56.0,29.88,SE,130,7.0,-999.0,96,-99.99,,,-99.99,,2013-05-06 19:32:00,
2013-05-06 12:41:00,57.0,56.0,29.88,SE,130,7.0,-999.0,96,-99.99,,,-99.99,,2013-05-06 19:41:00,
2013-05-06 12:52:00,57.0,56.0,29.88,SE,130,7.0,-999.0,96,-99.99,,,-99.99,,2013-05-06 19:52:00,
2013-05-06 13:00:00,54.0,54.0,29.88,SSE,150,10.0,-999.0,99,-99.99,,,-99.99,,2013-05-06 20:00:00,
2013-05-06 13:21:00,54.0,54.0,29.88,SSE,150,10.0,-999.0,99,-99.99,,,-99.99,,2013-05-06 20:21:00,
2013-05-06 13:32:00,54.0,54.0,29.88,SSE,150,10.0,-999.0,99,-99.99,,,-99.99,,2013-05-06 20:32:00,
2013-05-06 13:41:00,54.0,54.0,29.88,SSE,150,10.0,-999.0,99,-99.99,,,-99.99,,2013-05-06 20:41:00,
2013-05-06 13:52:00,54.0,54.0,29.88,SSE,150,10.0,-999.0,99,-99.99,,,-99.99,,2013-05-06 20:52:00,
2013-05-06 14:00:00,52.0,52.0,29.88,South,170,14.0,-999.0,100,-99.99,,,-99.99,,2013-05-06 21:00:00,
2013-05-06 14:21:00,52.0,52.0,29.88,South,170,14.0,-999.0,100,-99.99,,,-99.99,,2013-05-06 21:21:00,
2013-05-06 14:32:00,52.0,52.0,29.88,South,170,14.0,-999.0,100,-99.99,,,-99.99,,2013-05-06 21:32:00,
2013-05-06 14:42:00,52.0,52.0,29.88,South,170,14.0,-999.0,100,-99.99,,,-99.99,,2013-05-06 21:42:00,
2013-05-06 14:53:00,52.0,52.0,29.88,South,170,14.0,-999.0,100,-99.99,,,-99.99,,2013-05-06 21:53:00,
2013-05-06 15:00:00,51.0,51.0,29.89,South,180,10.0,-999.0,100,-99.99,,,-99.99,,2013-05-06 22:00:00,
2013-05-06 15:22:00,51.0,51.0,29.89,South,180,10.0,-999.0,100,-99.99,,,-99.99,,2013-05-06 22:22:00,
2013-05-06 15:33:00,51.0,51.0,29.89,South,180,10.0,-999.0,100,-99.99,,,-99.99,,2013-05-06 22:33:00,
2013-05-06 15:45:00,51.0,51.0,29.89,South,180,10.0,-999.0,100,-99.99,,,-99.99,,2013-05-06 22:45:00,
2013-05-06 15:52:00,51.0,51.0,29.89,South,180,10.0,-999.0,100,-99.99,,,-99.99,,2013-05-06 22:52:00,
2013-05-06 17:00:00,51.0,51.0,29.88,SSE,150,7.0,-999.0,100,-99.99,,,-99.99,,2013-05-07 00:00:00,
2013-05-06 17:21:00,51.0,51.0,29.88,SSE,150,7.0,-999.0,100,-99.99,,,-99.99,,2013-05-07 00:21:00,
2013-05-06 17:31:00,51.0,51.0,29.88,SSE,150,7.0,-999.0,100,-99.99,,,-99.99,,2013-05-07 00:31:00,
2013-05-06 17:41:00,51.0,51.0,29.88,SSE,150,7.0,-999.0,100,-99.99,,,-99.99,,2013-05-07 00:41:00,
2013-05-06 17:51:00,51.0,51.0,29.88,SSE,150,7.0,-999.0,100,-99.99,,,-99.99,,2013-05-07 00:51:00,